Location: Escondido Hill
(38.9119°N, 104.7815°W)
Time: 04:20:05
(UTC-06:00)

N. Korean satellite - Visible Passes

Search period start: 17 October 2019 00:00
Search period end: 27 October 2019 00:00
Orbit: 455 x 508 km, 97.2° (Epoch: 16 October)

Date Brightness Start Highest point End Pass type
(mag) Time Alt. Az. Time Alt. Az. Time Alt. Az.
17 Oct 8.7 06:24:35 10° NNE 06:27:51 32° E 06:31:10 10° SSE visible
18 Oct 10.0 06:00:10 10° NE 06:02:27 16° E 06:04:44 10° SE visible
19 Oct 10.5 19:17:26 10° WSW 19:18:15 11° W 19:19:05 10° WNW visible
20 Oct 7.4 06:41:49 10° NNE 06:45:24 58° E 06:49:00 10° S visible
20 Oct 9.4 18:50:02 10° SSW 18:52:47 23° W 18:55:34 10° NW visible
21 Oct 9.1 06:16:55 10° NE 06:20:02 26° E 06:23:10 10° SSE visible
22 Oct 10.2 05:52:50 10° ENE 05:54:36 13° E 05:56:21 10° ESE visible
23 Oct 10.1 19:08:33 10° SW 19:10:20 14° W 19:12:09 10° WNW visible
24 Oct 7.9 06:34:02 10° NNE 06:37:34 45° E 06:41:07 10° S visible
24 Oct 8.9 18:41:52 10° SSW 18:44:52 29° W 18:47:56 10° NW visible
25 Oct 9.5 06:09:17 10° NE 06:12:10 22° E 06:15:04 10° SSE visible
26 Oct 10.5 05:45:58 10° E 05:46:42 10° E 05:47:25 10° ESE visible
